Tracking 29933 objects as of 2-Dec-2024
HD Live streaming from Space Station
objects crossing your sky now

STARLINK-31814

Track STARLINK-31814 now!
10-day predictions
STARLINK-31814 is classified as:


NORAD ID: 59802
Int'l Code: 2024-093W
Perigee: 450.6 km
Apogee: 451.9 km
Inclination: 43.0 °
Period: 93.5 minutes
Semi major axis: 6822 km
RCS: Unknown
Launch date: May 18, 2024
Source: United States (US)
Launch site: AIR FORCE EASTERN TEST RANGE (AFETR)
Your satellite tracking list
Your tracking list is empty




NASA's NSSDC Master Catalog

Two Line Element Set (TLE):
1 59802U 24093W   24337.32859753  .00001564  00000-0  44740-4 0  9992
2 59802  43.0004 308.6729 0000944 244.5420 115.5339 15.40664805 31886
Source of the keplerian elements: AFSPC